| time (UTC) | temp F | wind direction | speed knots | gust knots | rain 1hr in | rain 24hr in | rain mn in | humidity % | barometer mb |
| 20260905234555 | 88 | 111 | 4.3 | 5.2 | 0.00 | 0.00 | 0.00 | 78 | 1014.6 |
| 20260905234050 | 88 | 41 | 2.6 | 7.0 | 0.00 | 0.00 | 0.00 | 79 | 1014.5 |
| 20260905233544 | 88 | 23 | 1.7 | 5.2 | 0.00 | 0.00 | 0.00 | 79 | 1014.6 |
| 20260905233045 | 89 | 87 | 2.6 | 4.3 | 0.00 | 0.00 | 0.00 | 79 | 1014.5 |
| 20260905232540 | 89 | 29 | 0.0 | 2.6 | 0.00 | 0.00 | 0.00 | 79 | 1014.5 |
| 20260905232035 | 89 | 26 | 0.9 | 2.6 | 0.00 | 0.00 | 0.00 | 77 | 1014.4 |
| 20260905231531 | 89 | 58 | 2.6 | 5.2 | 0.00 | 0.00 | 0.00 | 76 | 1014.5 |
| 20260905231027 | 90 | 337 | 0.0 | 2.6 | 0.00 | 0.00 | 0.00 | 77 | 1014.4 |
| 20260905230526 | 90 | 34 | 2.6 | 4.3 | 0.00 | 0.00 | 0.00 | 77 | 1014.6 |
| 20260905230025 | 91 | 356 | 0.9 | 0.9 | 0.00 | 0.00 | 0.00 | 76 | 1014.6 |
| 20260905225519 | 90 | 332 | 1.7 | 5.2 | 0.00 | 0.00 | 0.00 | 76 | 1014.5 |
| 20260905225015 | 90 | 24 | 1.7 | 6.1 | 0.00 | 0.00 | 0.00 | 76 | 1014.5 |
| 20260905224509 | 90 | 344 | 0.9 | 2.6 | 0.00 | 0.00 | 0.00 | 78 | 1014.5 |
| 20260905224009 | 90 | 334 | 0.0 | 2.6 | 0.00 | 0.00 | 0.00 | 77 | 1014.5 |
| 20260905223507 | 90 | 4 | 1.7 | 5.2 | 0.00 | 0.00 | 0.00 | 77 | 1014.2 |
| 20260905223001 | 90 | 343 | 2.6 | 6.1 | 0.00 | 0.00 | 0.00 | 76 | 1014.4 |
| 20260905222456 | 91 | 43 | 1.7 | 5.2 | 0.00 | 0.00 | 0.00 | 76 | 1014.5 |
| 20260905221951 | 92 | 18 | 1.7 | 2.6 | 0.00 | 0.00 | 0.00 | 75 | 1014.3 |
| 20260905221448 | 91 | 28 | 0.9 | 4.3 | 0.00 | 0.00 | 0.00 | 75 | 1014.4 |
| 20260905220944 | 91 | 102 | 3.5 | 5.2 | 0.00 | 0.00 | 0.00 | 75 | 1014.5 |
| 20260905220440 | 91 | 40 | 2.6 | 4.3 | 0.00 | 0.00 | 0.00 | 75 | 1014.4 |
| 20260905215938 | 91 | 97 | 1.7 | 1.7 | 0.00 | 0.00 | 0.00 | 74 | 1014.4 |
| 20260905215434 | 92 | 236 | 0.9 | 5.2 | 0.00 | 0.00 | 0.00 | 73 | 1014.6 |
| 20260905214930 | 91 | 336 | 0.9 | 2.6 | 0.00 | 0.00 | 0.00 | 77 | 1014.4 |
| 20260905214425 | 91 | 297 | 0.9 | 2.6 | 0.00 | 0.00 | 0.00 | 75 | 1014.4 |
| 20260905213920 | 91 | 327 | 0.9 | 4.3 | 0.00 | 0.00 | 0.00 | 74 | 1014.2 |
| 20260905213416 | 91 | 47 | 2.6 | 4.3 | 0.00 | 0.00 | 0.00 | 74 | 1014.3 |
| 20260905212912 | 91 | 328 | 0.9 | 6.1 | 0.00 | 0.00 | 0.00 | 75 | 1014.5 |
| 20260905212406 | 91 | 322 | 0.9 | 5.2 | 0.00 | 0.00 | 0.00 | 77 | 1014.6 |
| 20260905211905 | 91 | 338 | 0.9 | 2.6 | 0.00 | 0.00 | 0.00 | 76 | 1014.5 |
| 20260905211401 | 91 | 139 | 1.7 | 4.3 | 0.00 | 0.00 | 0.00 | 76 | 1014.5 |
| 20260905210857 | 91 | 320 | 1.7 | 2.6 | 0.00 | 0.00 | 0.00 | 78 | 1014.1 |
| 20260905210356 | 90 | 48 | 0.9 | 1.7 | 0.00 | 0.00 | 0.00 | 75 | 1014.4 |
| 20260905205856 | 90 | 14 | 1.7 | 4.3 | 0.00 | 0.00 | 0.00 | 77 | 1014.4 |
| 20260905205350 | 90 | 61 | 1.7 | 2.6 | 0.00 | 0.00 | 0.00 | 75 | 1014.5 |
| 20260905204844 | 91 | 327 | 0.9 | 2.6 | 0.00 | 0.00 | 0.00 | 76 | 1014.4 |
| 20260905204340 | 91 | 267 | 0.9 | 4.3 | 0.00 | 0.00 | 0.00 | 73 | 1014.5 |
| 20260905203833 | 92 | 2 | 3.5 | 6.1 | 0.00 | 0.00 | 0.00 | 71 | 1014.5 |
| 20260905203330 | 94 | 48 | 3.5 | 7.0 | 0.00 | 0.00 | 0.00 | 69 | 1014.6 |
| 20260905202825 | 93 | 314 | 0.0 | 2.6 | 0.00 | 0.00 | 0.00 | 70 | 1014.6 |
| 20260905202319 | 94 | 23 | 1.7 | 4.3 | 0.00 | 0.00 | 0.00 | 69 | 1014.6 |
| 20260905201815 | 93 | 284 | 1.7 | 1.7 | 0.00 | 0.00 | 0.00 | 68 | 1014.6 |
| 20260905201311 | 92 | 329 | 0.0 | 5.2 | 0.00 | 0.00 | 0.00 | 71 | 1014.6 |
| 20260905200805 | 92 | 344 | 2.6 | 5.2 | 0.00 | 0.00 | 0.00 | 72 | 1014.7 |
| 20260905200301 | 93 | 351 | 1.7 | 5.2 | 0.00 | 0.00 | 0.00 | 71 | 1014.8 |
| 20260905195759 | 93 | 350 | 5.2 | 7.0 | 0.00 | 0.00 | 0.00 | 70 | 1014.9 |
| 20260905195254 | 93 | 317 | 1.7 | 4.3 | 0.00 | 0.00 | 0.00 | 69 | 1014.9 |
| 20260905194749 | 93 | 93 | 4.3 | 7.0 | 0.00 | 0.00 | 0.00 | 69 | 1015.0 |
| 20260905194248 | 93 | 37 | 3.5 | 6.1 | 0.00 | 0.00 | 0.00 | 69 | 1015.2 |
| 20260905193743 | 92 | 60 | 1.7 | 4.3 | 0.00 | 0.00 | 0.00 | 69 | 1015.4 |
| 20260905193237 | 92 | 15 | 6.1 | 7.0 | 0.00 | 0.00 | 0.00 | 71 | 1015.5 |
| 20260905192727 | 93 | 6 | 3.5 | 6.1 | 0.00 | 0.00 | 0.00 | 72 | 1015.3 |
| 20260905192224 | 91 | 62 | 0.9 | 4.3 | 0.00 | 0.00 | 0.00 | 72 | 1015.4 |
| 20260905191723 | 92 | 350 | 3.5 | 7.8 | 0.00 | 0.00 | 0.00 | 71 | 1015.7 |
| 20260905191221 | 91 | 308 | 3.5 | 7.8 | 0.00 | 0.00 | 0.00 | 73 | 1015.7 |
| 20260905190720 | 91 | 10 | 5.2 | 7.8 | 0.00 | 0.00 | 0.00 | 69 | 1015.6 |
| 20260905190219 | 91 | 11 | 6.1 | 7.0 | 0.00 | 0.00 | 0.00 | 69 | 1015.9 |
| 20260905185718 | 91 | 7 | 4.3 | 5.2 | 0.00 | 0.00 | 0.00 | 67 | 1016.0 |
| 20260905185213 | 91 | 338 | 5.2 | 6.1 | 0.00 | 0.00 | 0.00 | 69 | 1015.9 |
| 20260905184713 | 91 | 16 | 2.6 | 5.2 | 0.00 | 0.00 | 0.00 | 71 | 1016.0 |
| 20260905184212 | 91 | 12 | 1.7 | 6.1 | 0.00 | 0.00 | 0.00 | 71 | 1016.0 |
| 20260905183706 | 91 | 352 | 2.6 | 6.1 | 0.00 | 0.00 | 0.00 | 72 | 1016.1 |
| 20260905183202 | 92 | 19 | 3.5 | 5.2 | 0.00 | 0.00 | 0.00 | 71 | 1016.1 |
| 20260905182700 | 90 | 1 | 1.7 | 7.8 | 0.00 | 0.00 | 0.00 | 72 | 1016.0 |
| 20260905182154 | 91 | 325 | 1.7 | 5.2 | 0.00 | 0.00 | 0.00 | 70 | 1016.0 |
| 20260905181650 | 92 | 333 | 2.6 | 7.8 | 0.00 | 0.00 | 0.00 | 69 | 1016.2 |
| 20260905181143 | 92 | 4 | 3.5 | 5.2 | 0.00 | 0.00 | 0.00 | 68 | 1016.2 |
| 20260905180638 | 92 | 6 | 2.6 | 4.3 | 0.00 | 0.00 | 0.00 | 67 | 1016.1 |
| 20260905180133 | 91 | 357 | 3.5 | 7.0 | 0.00 | 0.00 | 0.00 | 67 | 1016.0 |
| 20260905175632 | 91 | 352 | 4.3 | 5.2 | 0.00 | 0.00 | 0.00 | 69 | 1016.4 |
| 20260905175128 | 92 | 18 | 3.5 | 5.2 | 0.00 | 0.00 | 0.00 | 67 | 1016.3 |
| 20260905174624 | 93 | 20 | 2.6 | 4.3 | 0.00 | 0.00 | 0.00 | 64 | 1016.2 |
| 20260905174118 | 94 | 334 | 2.6 | 4.3 | 0.00 | 0.00 | 0.00 | 65 | 1016.2 |
| 20260905173615 | 92 | 303 | 0.0 | 2.6 | 0.00 | 0.00 | 0.00 | 66 | 1016.3 |
| 20260905173110 | 92 | 312 | 0.0 | 2.6 | 0.00 | 0.00 | 0.00 | 67 | 1016.3 |
| 20260905172608 | 93 | 297 | 2.6 | 2.6 | 0.00 | 0.00 | 0.00 | 67 | 1016.2 |
| 20260905172103 | 92 | 293 | 1.7 | 2.6 | 0.00 | 0.00 | 0.00 | 66 | 1016.3 |
| 20260905171600 | 90 | 336 | 0.9 | 2.6 | 0.00 | 0.00 | 0.00 | 69 | 1016.3 |
| 20260905171056 | 91 | 286 | 1.7 | 1.7 | 0.00 | 0.00 | 0.00 | 69 | 1016.2 |
| 20260905170552 | 91 | 313 | 0.0 | 0.0 | 0.00 | 0.00 | 0.00 | 71 | 1016.3 |
| 20260905170047 | 90 | 327 | 0.9 | 2.6 | 0.00 | 0.00 | 0.00 | 71 | 1016.0 |
| 20260905165542 | 90 | 358 | 2.6 | 2.6 | 0.00 | 0.00 | 0.00 | 72 | 1016.1 |
| 20260905165032 | 89 | 339 | 1.7 | 5.2 | 0.00 | 0.00 | 0.00 | 71 | 1016.0 |
| 20260905164532 | 90 | 9 | 4.3 | 6.1 | 0.00 | 0.00 | 0.00 | 71 | 1016.3 |
| 20260905164027 | 91 | 308 | 2.6 | 2.6 | 0.00 | 0.00 | 0.00 | 71 | 1016.4 |
| 20260905163523 | 90 | 301 | 0.9 | 0.9 | 0.00 | 0.00 | 0.00 | 72 | 1016.3 |
| 20260905163018 | 89 | 357 | 1.7 | 2.6 | 0.00 | 0.00 | 0.00 | 74 | 1016.4 |
| 20260905162514 | 89 | 286 | 1.7 | 2.6 | 0.00 | 0.00 | 0.00 | 73 | 1016.2 |
| 20260905162008 | 88 | 310 | 1.7 | 4.3 | 0.00 | 0.00 | 0.00 | 76 | 1016.6 |
| 20260905161503 | 88 | 318 | 1.7 | 2.6 | 0.00 | 0.00 | 0.00 | 75 | 1016.3 |
| 20260905161000 | 88 | 290 | 1.7 | 2.6 | 0.00 | 0.00 | 0.00 | 75 | 1016.6 |
| 20260905160454 | 87 | 307 | 1.7 | 4.3 | 0.00 | 0.00 | 0.00 | 79 | 1016.5 |
| 20260905155953 | 87 | 322 | 2.6 | 4.3 | 0.00 | 0.00 | 0.00 | 78 | 1016.4 |
| 20260905155448 | 87 | 318 | 1.7 | 1.7 | 0.00 | 0.00 | 0.00 | 78 | 1016.4 |
| 20260905154947 | 86 | 303 | 0.9 | 1.7 | 0.00 | 0.00 | 0.00 | 81 | 1016.2 |
| 20260905154443 | 86 | 322 | 0.9 | 0.9 | 0.00 | 0.00 | 0.00 | 82 | 1016.2 |
| 20260905153938 | 86 | 312 | 0.0 | 0.9 | 0.00 | 0.00 | 0.00 | 81 | 1016.1 |
| 20260905153434 | 87 | 285 | 0.9 | 1.7 | 0.00 | 0.00 | 0.00 | 80 | 1016.1 |
| 20260905152933 | 87 | 296 | 0.0 | 0.0 | 0.00 | 0.00 | 0.00 | 78 | 1016.1 |
| 20260905152427 | 87 | 289 | 0.0 | 0.0 | 0.00 | 0.00 | 0.00 | 78 | 1016.1 |
| 20260905151922 | 85 | 293 | 0.0 | 0.9 | 0.00 | 0.00 | 0.00 | 82 | 1016.0 |
| 20260905151418 | 84 | 302 | 0.9 | 1.7 | 0.00 | 0.00 | 0.00 | 84 | 1016.0 |
| 20260905150918 | 83 | 288 | 0.9 | 1.7 | 0.00 | 0.00 | 0.00 | 86 | 1016.1 |
| 20260905150418 | 84 | 310 | 0.9 | 0.9 | 0.00 | 0.00 | 0.00 | 85 | 1016.0 |
| 20260905145915 | 84 | 308 | 0.9 | 0.9 | 0.00 | 0.00 | 0.00 | 85 | 1015.9 |
| 20260905145410 | 84 | 290 | 0.0 | 0.9 | 0.00 | 0.00 | 0.00 | 83 | 1016.0 |
| 20260905144909 | 84 | 295 | 0.0 | 0.9 | 0.00 | 0.00 | 0.00 | 84 | 1015.8 |
| 20260905144359 | 83 | 286 | 0.9 | 0.9 | 0.00 | 0.00 | 0.00 | 83 | 1015.5 |
| 20260905143857 | 82 | 310 | 0.0 | 0.9 | 0.00 | 0.00 | 0.00 | 87 | 1015.7 |
| 20260905143352 | 82 | 316 | 1.7 | 1.7 | 0.00 | 0.00 | 0.00 | 87 | 1015.7 |
| 20260905142852 | 82 | 297 | 0.0 | 0.0 | 0.00 | 0.00 | 0.00 | 88 | 1015.9 |
| 20260905142350 | 82 | 296 | 0.0 | 0.9 | 0.00 | 0.00 | 0.00 | 89 | 1015.8 |
| 20260905141847 | 81 | 273 | 0.0 | 0.0 | 0.00 | 0.00 | 0.00 | 89 | 1015.7 |
| 20260905141342 | 81 | 272 | 0.0 | 0.9 | 0.00 | 0.00 | 0.00 | 89 | 1015.7 |
| 20260905140837 | 80 | 269 | 0.9 | 1.7 | 0.00 | 0.00 | 0.00 | 90 | 1015.4 |
| 20260905140332 | 80 | 269 | 0.9 | 0.9 | 0.00 | 0.00 | 0.00 | 92 | 1015.5 |
| 20260905135830 | 80 | 272 | 0.0 | 1.7 | 0.00 | 0.00 | 0.00 | 93 | 1015.6 |
| 20260905135326 | 80 | 274 | 0.0 | 0.9 | 0.00 | 0.00 | 0.00 | 92 | 1015.4 |
| 20260905134821 | 79 | 277 | 0.0 | 0.9 | 0.00 | 0.00 | 0.00 | 91 | 1015.4 |
| 20260905134314 | 79 | 281 | 0.0 | 0.9 | 0.00 | 0.00 | 0.00 | 93 | 1015.6 |
| 20260905133809 | 79 | 274 | 0.9 | 0.9 | 0.00 | 0.00 | 0.00 | 93 | 1015.3 |
| 20260905133305 | 79 | 279 | 0.0 | 0.9 | 0.00 | 0.00 | 0.00 | 93 | 1015.2 |
| 20260905132803 | 79 | 258 | 0.9 | 0.9 | 0.00 | 0.00 | 0.00 | 94 | 1015.2 |
| 20260905132259 | 79 | 275 | 0.9 | 1.7 | 0.00 | 0.00 | 0.00 | 94 | 1015.3 |
| 20260905131754 | 78 | 271 | 0.9 | 0.9 | 0.00 | 0.00 | 0.00 | 93 | 1015.3 |
| 20260905131249 | 80 | 272 | 0.9 | 0.9 | 0.00 | 0.00 | 0.00 | 91 | 1015.0 |
| 20260905130744 | 79 | 274 | 0.0 | 0.9 | 0.00 | 0.00 | 0.00 | 92 | 1015.1 |
| 20260905130243 | 78 | 216 | 1.7 | 1.7 | 0.00 | 0.00 | 0.00 | 93 | 1015.1 |
| 20260905125738 | 78 | 251 | 1.7 | 1.7 | 0.00 | 0.00 | 0.00 | 94 | 1015.2 |
| 20260905125233 | 77 | 278 | 0.0 | 0.9 | 0.00 | 0.00 | 0.00 | 95 | 1015.1 |
| 20260905124730 | 75 | 279 | 0.0 | 0.0 | 0.00 | 0.00 | 0.00 | 97 | 1014.9 |
| 20260905124226 | 75 | 279 | 0.0 | 0.0 | 0.00 | 0.00 | 0.00 | 98 | 1015.2 |
| 20260905123725 | 74 | 228 | 0.9 | 1.7 | 0.00 | 0.00 | 0.00 | 99 | 1014.9 |
| 20260905123223 | 74 | 262 | 0.0 | 0.0 | 0.00 | 0.00 | 0.00 | 99 | 1015.1 |
| 20260905122722 | 73 | 262 | 0.0 | 0.0 | 0.00 | 0.00 | 0.00 | 99 | 1015.0 |
| 20260905122217 | 73 | 262 | 0.0 | 0.0 | 0.00 | 0.00 | 0.00 | 99 | 1014.8 |
| 20260905121712 | 73 | 262 | 0.0 | 0.0 | 0.00 | 0.00 | 0.00 | 99 | 1014.8 |
| 20260905121209 | 73 | 262 | 0.0 | 0.0 | 0.00 | 0.00 | 0.00 | 99 | 1014.8 |
| 20260905120707 | 73 | 262 | 0.0 | 0.0 | 0.00 | 0.00 | 0.00 | 99 | 1014.8 |
| 20260905120201 | 72 | 263 | 0.0 | 0.0 | 0.00 | 0.00 | 0.00 | 99 | 1014.6 |
| 20260905115701 | 73 | 262 | 0.0 | 0.0 | 0.00 | 0.00 | 0.00 | 99 | 1014.4 |
| 20260905115151 | 73 | 262 | 0.0 | 0.0 | 0.00 | 0.00 | 0.00 | 99 | 1014.4 |
| 20260905114650 | 73 | 262 | 0.0 | 0.0 | 0.00 | 0.00 | 0.00 | 99 | 1014.3 |
| 20260905114148 | 73 | 262 | 0.0 | 0.0 | 0.00 | 0.00 | 0.00 | 99 | 1014.2 |
| 20260905113643 | 73 | 262 | 0.0 | 0.0 | 0.00 | 0.00 | 0.00 | 99 | 1014.5 |
| 20260905113138 | 73 | 243 | 1.7 | 1.7 | 0.00 | 0.00 | 0.00 | 99 | 1014.2 |
| 20260905112633 | 73 | 261 | 0.9 | 0.9 | 0.00 | 0.00 | 0.00 | 99 | 1014.3 |
| 20260905112130 | 73 | 261 | 0.0 | 0.0 | 0.00 | 0.00 | 0.00 | 99 | 1014.4 |
| 20260905111629 | 73 | 261 | 0.0 | 0.0 | 0.00 | 0.00 | 0.00 | 99 | 1014.5 |
| 20260905111128 | 73 | 261 | 0.0 | 0.9 | 0.00 | 0.00 | 0.00 | 99 | 1014.5 |
| 20260905110628 | 73 | 261 | 0.0 | 0.0 | 0.00 | 0.00 | 0.00 | 99 | 1014.4 |
| 20260905110123 | 73 | 261 | 0.0 | 0.0 | 0.00 | 0.00 | 0.00 | 99 | 1014.3 |
| 20260905105618 | 73 | 261 | 0.0 | 0.0 | 0.00 | 0.00 | 0.00 | 99 | 1014.4 |
| 20260905105117 | 73 | 261 | 0.0 | 0.0 | 0.00 | 0.00 | 0.00 | 99 | 1014.2 |
| 20260905104612 | 73 | 261 | 0.0 | 0.0 | 0.00 | 0.00 | 0.00 | 99 | 1014.2 |
| 20260905104107 | 74 | 261 | 0.0 | 0.0 | 0.00 | 0.00 | 0.00 | 99 | 1014.3 |
| 20260905103603 | 74 | 261 | 0.0 | 0.0 | 0.00 | 0.00 | 0.00 | 99 | 1014.3 |
| 20260905103058 | 74 | 261 | 0.0 | 0.0 | 0.00 | 0.00 | 0.00 | 98 | 1014.2 |
| 20260905102548 | 74 | 261 | 0.0 | 0.0 | 0.00 | 0.00 | 0.00 | 98 | 1014.1 |
| 20260905102045 | 74 | 261 | 0.0 | 0.0 | 0.00 | 0.00 | 0.00 | 98 | 1014.1 |
| 20260905101543 | 75 | 261 | 0.0 | 0.0 | 0.00 | 0.00 | 0.00 | 98 | 1014.0 |
| 20260905101041 | 75 | 261 | 0.0 | 0.9 | 0.00 | 0.00 | 0.00 | 98 | 1014.0 |
| 20260905100538 | 74 | 261 | 0.0 | 0.0 | 0.00 | 0.00 | 0.00 | 98 | 1013.6 |
| 20260905100037 | 75 | 261 | 0.0 | 0.0 | 0.00 | 0.00 | 0.00 | 98 | 1013.7 |
| 20260905095531 | 74 | 261 | 0.0 | 0.0 | 0.00 | 0.00 | 0.00 | 97 | 1014.0 |
| 20260905095026 | 75 | 261 | 0.0 | 0.0 | 0.00 | 0.00 | 0.00 | 97 | 1014.0 |
| 20260905094516 | 75 | 261 | 0.0 | 0.0 | 0.00 | 0.00 | 0.00 | 97 | 1013.6 |
| 20260905094015 | 75 | 261 | 0.9 | 0.9 | 0.00 | 0.00 | 0.00 | 97 | 1013.9 |
| 20260905093510 | 75 | 261 | 0.9 | 0.9 | 0.00 | 0.00 | 0.00 | 96 | 1013.7 |
| 20260905093007 | 76 | 261 | 0.0 | 0.9 | 0.00 | 0.00 | 0.00 | 95 | 1013.9 |
| 20260905092506 | 76 | 261 | 0.0 | 0.0 | 0.00 | 0.00 | 0.00 | 95 | 1013.7 |
| 20260905092002 | 76 | 261 | 0.9 | 0.9 | 0.00 | 0.00 | 0.00 | 95 | 1013.9 |
| 20260905091501 | 76 | 261 | 0.9 | 1.7 | 0.00 | 0.00 | 0.00 | 95 | 1013.9 |
| 20260905090956 | 76 | 262 | 0.9 | 0.9 | 0.00 | 0.00 | 0.00 | 94 | 1013.9 |
| 20260905090451 | 76 | 262 | 0.9 | 1.7 | 0.00 | 0.00 | 0.00 | 95 | 1013.7 |
| 20260905085950 | 76 | 262 | 0.0 | 0.9 | 0.00 | 0.00 | 0.00 | 95 | 1014.0 |
| 20260905085450 | 76 | 262 | 0.0 | 0.9 | 0.00 | 0.00 | 0.00 | 96 | 1014.1 |
| 20260905084946 | 76 | 262 | 0.0 | 0.0 | 0.00 | 0.00 | 0.00 | 96 | 1014.2 |
| 20260905084445 | 76 | 262 | 0.0 | 0.9 | 0.00 | 0.00 | 0.00 | 96 | 1014.1 |
| 20260905083939 | 76 | 262 | 0.0 | 0.9 | 0.00 | 0.00 | 0.00 | 96 | 1014.3 |
| 20260905083436 | 76 | 262 | 0.9 | 0.9 | 0.00 | 0.00 | 0.00 | 96 | 1014.2 |
| 20260905082931 | 76 | 262 | 0.0 | 0.0 | 0.00 | 0.00 | 0.00 | 96 | 1014.1 |
| 20260905082427 | 76 | 262 | 0.0 | 0.0 | 0.00 | 0.00 | 0.00 | 96 | 1014.2 |
| 20260905081922 | 76 | 262 | 0.0 | 0.0 | 0.00 | 0.00 | 0.00 | 96 | 1014.2 |
| 20260905081417 | 76 | 262 | 0.9 | 0.9 | 0.00 | 0.00 | 0.00 | 95 | 1014.2 |
| 20260905080915 | 76 | 262 | 0.9 | 0.9 | 0.00 | 0.00 | 0.00 | 95 | 1014.3 |
| 20260905080410 | 76 | 262 | 0.9 | 0.9 | 0.00 | 0.00 | 0.00 | 95 | 1014.4 |
| 20260905075909 | 76 | 262 | 0.9 | 1.7 | 0.00 | 0.00 | 0.00 | 96 | 1014.3 |
| 20260905075409 | 76 | 262 | 0.9 | 0.9 | 0.00 | 0.00 | 0.00 | 96 | 1014.2 |
| 20260905074908 | 76 | 262 | 0.0 | 0.0 | 0.00 | 0.00 | 0.00 | 97 | 1014.5 |
| 20260905074358 | 76 | 262 | 0.0 | 0.0 | 0.00 | 0.00 | 0.00 | 97 | 1014.3 |
| 20260905073854 | 76 | 262 | 0.0 | 0.0 | 0.00 | 0.00 | 0.00 | 96 | 1014.3 |
| 20260905073349 | 76 | 262 | 0.0 | 0.0 | 0.00 | 0.00 | 0.00 | 96 | 1014.5 |
| 20260905072844 | 76 | 262 | 0.9 | 0.9 | 0.00 | 0.00 | 0.00 | 96 | 1014.4 |
| 20260905072338 | 76 | 262 | 0.0 | 0.0 | 0.00 | 0.00 | 0.00 | 97 | 1014.2 |
| 20260905071835 | 76 | 262 | 0.0 | 0.0 | 0.00 | 0.00 | 0.00 | 97 | 1014.2 |
| 20260905071332 | 76 | 262 | 0.0 | 0.0 | 0.00 | 0.00 | 0.00 | 97 | 1014.4 |
| 20260905070831 | 76 | 262 | 0.0 | 0.0 | 0.00 | 0.00 | 0.00 | 96 | 1014.3 |
| 20260905070328 | 76 | 262 | 0.0 | 0.0 | 0.00 | 0.00 | 0.00 | 96 | 1014.2 |
| 20260905065826 | 77 | 262 | 0.0 | 0.0 | 0.00 | 0.00 | 0.00 | 96 | 1014.2 |
| 20260905065325 | 77 | 262 | 0.0 | 0.0 | 0.00 | 0.00 | 0.00 | 96 | 1014.3 |
| 20260905064820 | 77 | 262 | 0.0 | 0.0 | 0.00 | 0.00 | 0.00 | 96 | 1014.4 |
| 20260905064317 | 77 | 262 | 0.0 | 0.0 | 0.00 | 0.00 | 0.00 | 96 | 1014.2 |
| 20260905063815 | 77 | 262 | 0.9 | 0.9 | 0.00 | 0.00 | 0.00 | 96 | 1014.2 |
| 20260905063311 | 76 | 262 | 0.0 | 0.0 | 0.00 | 0.00 | 0.00 | 97 | 1014.3 |
| 20260905062807 | 76 | 262 | 0.0 | 0.0 | 0.00 | 0.00 | 0.00 | 97 | 1014.4 |
| 20260905062307 | 76 | 262 | 0.0 | 0.0 | 0.00 | 0.00 | 0.00 | 97 | 1014.2 |
| 20260905061801 | 76 | 262 | 0.0 | 0.0 | 0.00 | 0.00 | 0.00 | 97 | 1014.4 |
| 20260905061255 | 76 | 262 | 0.0 | 0.0 | 0.00 | 0.00 | 0.00 | 97 | 1014.3 |
| 20260905060750 | 76 | 262 | 0.0 | 0.0 | 0.00 | 0.00 | 0.00 | 96 | 1014.4 |
| 20260905060248 | 76 | 262 | 0.0 | 0.0 | 0.00 | 0.00 | 0.00 | 96 | 1014.2 |
| 20260905055746 | 77 | 262 | 0.0 | 0.0 | 0.00 | 0.00 | 0.00 | 96 | 1014.2 |
| 20260905055241 | 77 | 262 | 0.0 | 0.0 | 0.00 | 0.00 | 0.00 | 96 | 1014.2 |
| 20260905054736 | 77 | 262 | 0.0 | 0.0 | 0.00 | 0.00 | 0.00 | 95 | 1014.2 |
| 20260905054233 | 77 | 262 | 0.0 | 0.0 | 0.00 | 0.00 | 0.00 | 95 | 1014.1 |
| 20260905053731 | 77 | 262 | 0.0 | 0.0 | 0.00 | 0.00 | 0.00 | 94 | 1014.1 |
| 20260905053227 | 78 | 262 | 0.0 | 0.0 | 0.00 | 0.00 | 0.00 | 94 | 1014.2 |
| 20260905052726 | 78 | 262 | 0.0 | 0.0 | 0.00 | 0.00 | 0.00 | 93 | 1014.1 |
| 20260905052222 | 78 | 262 | 0.9 | 0.9 | 0.00 | 0.00 | 0.00 | 93 | 1014.1 |
| 20260905051721 | 78 | 262 | 0.9 | 0.9 | 0.00 | 0.00 | 0.00 | 94 | 1014.0 |
| 20260905051218 | 78 | 262 | 0.0 | 0.0 | 0.00 | 0.00 | 0.00 | 94 | 1014.1 |
| 20260905050714 | 78 | 262 | 0.0 | 0.0 | 0.00 | 0.00 | 0.00 | 94 | 1014.2 |
| 20260905050211 | 78 | 262 | 0.0 | 0.0 | 0.00 | 0.00 | 0.00 | 94 | 1014.0 |
| 20260905045710 | 78 | 262 | 0.0 | 0.0 | 0.00 | 0.03 | 0.03 | 94 | 1014.1 |
| 20260905045206 | 78 | 262 | 0.0 | 0.0 | 0.00 | 0.03 | 0.03 | 94 | 1013.9 |
| 20260905044700 | 78 | 262 | 0.0 | 0.0 | 0.00 | 0.03 | 0.03 | 93 | 1013.7 |
| 20260905044155 | 79 | 262 | 0.0 | 0.0 | 0.00 | 0.03 | 0.03 | 93 | 1014.0 |
| 20260905043654 | 79 | 262 | 0.0 | 0.0 | 0.00 | 0.03 | 0.03 | 92 | 1013.9 |
| 20260905043149 | 80 | 262 | 0.0 | 0.0 | 0.00 | 0.03 | 0.03 | 91 | 1013.7 |
| 20260905042649 | 80 | 257 | 0.9 | 1.7 | 0.00 | 0.03 | 0.03 | 91 | 1013.9 |
| 20260905042148 | 80 | 263 | 0.0 | 0.0 | 0.00 | 0.03 | 0.03 | 91 | 1013.6 |
| 20260905041644 | 80 | 263 | 0.0 | 0.9 | 0.00 | 0.03 | 0.03 | 91 | 1013.5 |
| 20260905041139 | 80 | 263 | 0.9 | 0.9 | 0.00 | 0.03 | 0.03 | 91 | 1014.0 |
| 20260905040634 | 80 | 263 | 0.0 | 0.9 | 0.00 | 0.03 | 0.03 | 91 | 1013.9 |
| 20260905040127 | 80 | 263 | 0.9 | 0.9 | 0.00 | 0.03 | 0.03 | 91 | 1013.6 |
| 20260905035622 | 80 | 260 | 0.9 | 1.7 | 0.00 | 0.03 | 0.03 | 91 | 1013.7 |
| 20260905035119 | 80 | 244 | 0.9 | 1.7 | 0.00 | 0.03 | 0.03 | 91 | 1013.7 |
| 20260905034614 | 81 | 268 | 0.0 | 0.9 | 0.00 | 0.03 | 0.03 | 91 | 1013.9 |
| 20260905034108 | 81 | 257 | 0.9 | 1.7 | 0.00 | 0.03 | 0.03 | 91 | 1013.9 |
| 20260905033608 | 81 | 275 | 0.9 | 1.7 | 0.00 | 0.03 | 0.03 | 91 | 1013.7 |
| 20260905033104 | 81 | 267 | 0.9 | 0.9 | 0.00 | 0.03 | 0.03 | 90 | 1013.7 |
| 20260905032603 | 81 | 269 | 0.0 | 0.9 | 0.00 | 0.03 | 0.03 | 90 | 1013.6 |
| 20260905032058 | 81 | 277 | 0.0 | 0.9 | 0.00 | 0.03 | 0.03 | 90 | 1013.9 |
| 20260905031554 | 81 | 272 | 0.0 | 0.9 | 0.00 | 0.03 | 0.03 | 89 | 1013.7 |
| 20260905031054 | 82 | 253 | 0.9 | 1.7 | 0.00 | 0.03 | 0.03 | 89 | 1013.9 |
| 20260905030549 | 82 | 230 | 1.7 | 1.7 | 0.00 | 0.03 | 0.03 | 88 | 1013.7 |
| 20260905030043 | 82 | 212 | 1.7 | 1.7 | 0.00 | 0.03 | 0.03 | 88 | 1013.9 |
| 20260905025538 | 82 | 226 | 1.7 | 1.7 | 0.00 | 0.03 | 0.03 | 88 | 1013.7 |
| 20260905025035 | 82 | 276 | 0.0 | 0.9 | 0.00 | 0.03 | 0.03 | 88 | 1013.7 |
| 20260905024530 | 82 | 284 | 0.0 | 0.9 | 0.00 | 0.03 | 0.03 | 88 | 1013.5 |
| 20260905024026 | 82 | 274 | 0.9 | 1.7 | 0.00 | 0.03 | 0.03 | 88 | 1013.7 |
| 20260905023521 | 82 | 252 | 0.9 | 1.7 | 0.00 | 0.03 | 0.03 | 87 | 1013.7 |
| 20260905023021 | 82 | 267 | 0.9 | 1.7 | 0.00 | 0.03 | 0.03 | 87 | 1013.5 |
| 20260905022515 | 83 | 269 | 0.0 | 0.9 | 0.00 | 0.03 | 0.03 | 86 | 1013.7 |
| 20260905022010 | 83 | 269 | 0.0 | 0.9 | 0.00 | 0.03 | 0.03 | 85 | 1013.5 |
| 20260905021510 | 83 | 270 | 0.0 | 0.9 | 0.00 | 0.03 | 0.03 | 84 | 1013.6 |
| 20260905021005 | 83 | 269 | 0.0 | 0.9 | 0.00 | 0.03 | 0.03 | 84 | 1013.4 |
| 20260905020459 | 83 | 269 | 0.0 | 0.9 | 0.00 | 0.03 | 0.03 | 85 | 1013.6 |
| 20260905015954 | 84 | 271 | 0.9 | 0.9 | 0.00 | 0.03 | 0.03 | 85 | 1013.3 |
| 20260905015452 | 84 | 272 | 0.0 | 0.0 | 0.00 | 0.03 | 0.03 | 85 | 1013.5 |
| 20260905014952 | 84 | 272 | 0.0 | 0.0 | 0.00 | 0.03 | 0.03 | 85 | 1013.3 |
| 20260905014447 | 84 | 272 | 0.0 | 0.0 | 0.00 | 0.03 | 0.03 | 85 | 1013.2 |
| 20260905013942 | 84 | 272 | 0.0 | 0.0 | 0.00 | 0.03 | 0.03 | 85 | 1013.2 |
| 20260905013439 | 84 | 272 | 0.0 | 0.0 | 0.00 | 0.03 | 0.03 | 86 | 1013.0 |
| 20260905012933 | 84 | 272 | 0.0 | 0.0 | 0.00 | 0.03 | 0.03 | 85 | 1013.0 |
| 20260905012428 | 84 | 272 | 0.0 | 0.0 | 0.00 | 0.03 | 0.03 | 84 | 1012.9 |
| 20260905011925 | 84 | 272 | 0.0 | 0.0 | 0.00 | 0.03 | 0.03 | 84 | 1012.8 |
| 20260905011421 | 84 | 272 | 0.0 | 0.0 | 0.00 | 0.03 | 0.03 | 83 | 1012.8 |
| 20260905010916 | 84 | 272 | 0.0 | 0.0 | 0.00 | 0.03 | 0.03 | 83 | 1012.7 |
| 20260905010410 | 84 | 272 | 0.0 | 0.0 | 0.00 | 0.03 | 0.03 | 83 | 1012.7 |
| 20260905005901 | 84 | 272 | 0.0 | 0.0 | 0.00 | 0.03 | 0.03 | 83 | 1012.8 |
| 20260905005357 | 85 | 272 | 0.0 | 0.0 | 0.00 | 0.03 | 0.03 | 85 | 1012.6 |
| 20260905004851 | 85 | 272 | 0.0 | 0.0 | 0.00 | 0.03 | 0.03 | 85 | 1012.6 |
| 20260905004346 | 85 | 272 | 0.0 | 0.0 | 0.00 | 0.03 | 0.03 | 84 | 1012.8 |
| 20260905003841 | 86 | 272 | 0.0 | 0.0 | 0.00 | 0.03 | 0.03 | 84 | 1012.6 |
| 20260905003337 | 86 | 272 | 0.0 | 0.0 | 0.00 | 0.03 | 0.03 | 84 | 1012.6 |
| 20260905002833 | 86 | 272 | 0.0 | 0.0 | 0.00 | 0.03 | 0.03 | 84 | 1012.8 |
| 20260905002332 | 87 | 272 | 0.0 | 0.0 | 0.00 | 0.03 | 0.03 | 84 | 1012.9 |
| 20260905001827 | 87 | 272 | 0.0 | 0.0 | 0.00 | 0.03 | 0.03 | 83 | 1012.7 |
| 20260905001326 | 87 | 275 | 0.9 | 0.9 | 0.00 | 0.03 | 0.03 | 83 | 1012.6 |
| 20260905000822 | 88 | 277 | 0.0 | 0.0 | 0.00 | 0.03 | 0.03 | 83 | 1012.8 |
| 20260905000318 | 88 | 277 | 0.0 | 0.0 | 0.00 | 0.03 | 0.03 | 82 | 1012.8 |
| 20260904235812 | 88 | 277 | 0.0 | 0.0 | 0.00 | 0.03 | 0.03 | 81 | 1012.7 |
| 20260904235308 | 89 | 277 | 0.0 | 0.0 | 0.00 | 0.03 | 0.03 | 81 | 1012.7 |